Regional Weather Roundup
Issued by NWS

Home | Current Version | Previous Version | Graphics & Text | Print | Product List | Glossary On
Versions: 1 2 3 4 5 6 7 8 9 10 11 12 13 14 15 16 17 18 19 20 21 22 23 24 25 26 27 28 29 30 31 32 33 34 35 36 37 38 39 40 41 42 43 44 45 46 47 48 49 50
000
ASUS43 KDMX 211406
RWRIA

WEATHER ROUNDUP FOR IOWA
NATIONAL WEATHER SERVICE DES MOINES IA
800 AM CST SAT JAN 21 2017

NOTE: "FAIR" INDICATES FEW OR NO CLOUDS BELOW 12,000 FEET WITH NO
SIGNIFICANT WEATHER AND/OR OBSTRUCTIONS TO VISIBILITY.

* - THESE STATIONS ARE NOT NWS STATIONS...THUS NOT UNDER NWS
QUALITY CONTROL.  THEY ALSO DO NOT REPORT WEATHER SUCH
AS PRECIPITATION OR FOG.

IAZ001>003-012>014-020>022-031>034-043>046-211500-
   NORTHWEST IOWA

CITY           SKY/WX    TMP DP  RH WIND       PRES   REMARKS
CARROLL *      FOG       39  39 100 CALM      29.38R VSB 1/4
CHEROKEE *     FOG       35  35 100 CALM      29.37S VSB<1/4
DENISON *      FOG       37  37 100 SW3       29.36S VSB<1/4
LE MARS *      FOG       36  36 100 SW5       29.38S VSB<1/4 WCI  32
ORANGE CITY *  FOG       36  36 100 S3        29.36S VSB 1/4
SHELDON *      FOG       34  34 100 SE3       29.35R VSB 1/4
SIOUX CITY     LGT RAIN  38  38 100 CALM      29.38S VSB 3/4
SPENCER        FOG       34  34 100 E3        29.37S VSB 1/4
STORM LAKE *   FOG       36  36 100 SW5       29.36S VSB<1/4 WCI  32
$$

IAZ055>058-069>071-079>083-090>094-211500-
   SOUTHWEST IOWA

CITY           SKY/WX    TMP DP  RH WIND       PRES   REMARKS
ATLANTIC *     FOG       37  37 100 SW6       29.40R VSB<1/4 WCI  33
AUDUBON *      FOG       39  37  93 SW5       29.39S VSB 1/4
CLARINDA *     FOG       39  39 100 SW6       29.44R VSB<1/4 WCI  35
COUNCIL BLFS * FOG       39  39 100 SW8       29.40R VSB<1/4 WCI  34
CRESTON *      FOG       41  41 100 SW6       29.42S VSB<1/4
HARLAN  *      FOG       39  39 100 SW6       29.42S VSB<1/4 WCI  35
LAMONI         FOG       41  41 100 W9        29.42R VSB 1/4
RED OAK *      FOG       39  39 100 SW7       29.41S VSB<1/4 WCI  34
SHENANDOAH *   FOG       39  39 100 SW12      29.44R VSB<1/4 WCI  32
$$

IAZ047>049-059>061-072>074-084-211500-
   CENTRAL IOWA

CITY           SKY/WX    TMP DP  RH WIND       PRES   REMARKS
AMES           FOG       39  39 100 CALM      29.39S VSB 1/4
ANKENY *       FOG       43  43 100 S6        29.40F VSB 1/2
BOONE *        FOG       39  39 100 SW3       29.38S VSB<1/4
CHARITON *     CLOUDY    43  43 100 SW7       29.41R FOG
DES MOINES     FOG       44  43  96 SW8       29.40S VSB 1/4
GRINNELL*      FOG       41  40  98 SW6       29.40F VSB<1/4
KNOXVILLE *    FOG       43  43 100 SW10      29.40R VSB 1/4
MARSHALLTOWN   CLOUDY    42  42 100 SW8       29.38F FOG
NEWTON *       FOG       41  41 100 S8        29.40S VSB<1/4
PELLA *        FOG       42  42  99 S5        29.42R VSB 1/4
PERRY *        FOG       37  37  98 S5        29.39R VSB 1/4 WCI  34
$$

IAZ004>006-015-016-023>025-035-036-211500-
   NORTH CENTRAL IOWA

CITY           SKY/WX    TMP DP  RH WIND       PRES   REMARKS
ALGONA *       FOG       36  36 100 S3        29.38R VSB<1/4
CLARION *      FOG       36  36 100 S7        29.38S VSB<1/4 WCI  30
ESTHERVILLE    FOG       32  32 100 CALM      29.36S VSB 1/4
FORT DODGE *   CLOUDY    37  36  93 S5        29.38F VSB 1/4 WCI  34
MASON CITY     FOG       33  33 100 S3        29.39S VSB 1/4
FOREST CITY *  CLOUDY    34  34 100 CALM      29.37F FOG
WEBSTER CITY * FOG       36 N/A N/A S5        29.36F VSB<1/4 WCI  32
IOWA FALLS *   FOG       38  38  97 S7        29.40S VSB<1/4 WCI  33
$$

IAZ007>011-017>019-026>030-037>042-050>054-066-211500-
   NORTHEAST IOWA

CITY           SKY/WX    TMP DP  RH WIND       PRES   REMARKS
CEDAR RAPIDS   FOG       41  40  96 SE3       29.40F VSB<1/4
CHARLES CITY * FOG       36  36 100 S7        29.39S VSB<1/4 WCI  30
CLINTON *      LGT RAIN  41  41 100 SE7       29.45R VSB<1/4
DECORAH *      FOG       36  36 100 SE8       29.39S VSB<1/4 WCI  29
DUBUQUE        FOG       40  40 100 S7        29.43S VSB<1/4
MONTICELLO *   FOG       41  41 100 SE3       29.42S VSB<1/4
OELWEIN *      FOG       37  37 100 S7        29.41S VSB<1/4 WCI  32
WATERLOO       FOG       40  40 100 S3        29.40S VSB 1/4
$$

IAZ064-065-067-068-078-211500-
   EAST CENTRAL IOWA

CITY           SKY/WX    TMP DP  RH WIND       PRES   REMARKS
DAVENPORT      CLEAR     43  42  97 S10       29.43S FOG
IOWA CITY      FOG       43  43 100 S6        29.44S VSB<1/4
MUSCATINE *    FOG       37  37 100 N3        29.44S VSB<1/4
QUAD CITIES    CLEAR     40  38  93 CALM      29.43R
$$

IAZ062-063-075>077-085>089-095>099-211500-
   SOUTHEAST IOWA

CITY           SKY/WX    TMP DP  RH WIND       PRES   REMARKS
BURLINGTON     CLEAR     43  41  93 S9        29.43R
FAIRFIELD *    FOG       41  41 100 SW6       29.42S VSB<1/4
FORT MADISON * CLEAR     45  45 100 SW10      29.44S
KEOKUK *       CLEAR     46 N/A N/A SW14      29.44R
OSKALOOSA *    FOG       41  41  99 SW6       29.42S VSB<1/4
OTTUMWA        CLOUDY    44  41  89 SW9       29.42R FOG
WASHINGTON *   FOG       43  43 100 SW5       29.43F VSB 1/4
$$

ABBREVIATIONS USED IN REMARKS
   TC - TEMPERATURES IN CELSIUS
  WCI - WIND CHILL INDEX
   HX - HEAT INDEX
  VSB - VISIBILITY
$$





USA.gov is the U.S. government's official web portal to all federal, state and local government web resources and services.